Station Historical Data
Daily Summary for August 28, 2017 Units:  Metric    English   Both
« Previous Day
Next Day »
Daily Weekly Monthly Yearly Custom
  High: Low: Average:
Temperature: 24.8 °C 13.1 °C 18.7 °C
Dew Point: 13.9 °C 9.8 °C 11.5 °C
Humidity: 81% 43% 64%
Wind Speed: 12.9km/h 0km/h 2.9km/h
Wind Gust: 20.9km/h - -
Wind- - SE
Pressure: 1023.2 hPa 1020.5 hPa -
Precipitation: 0 mm    
Historical Graphs
 
 
Tabular Data for August 28, 2017
Time Temperature Dew Point Pressure Wind Wind Speed Wind Gust Humidity Rainfall Rate (Hourly)
00:04 15.4 °C 10.8 °C 1022.6 hPa Calm   3.2 km/h 74% 0 mm
00:09 15.3 °C 10.9 °C 1022.6 hPa Calm     75% 0 mm
00:14 15.2 °C 10.8 °C 1022.2 hPa East 1.6 km/h 3.2 km/h 75% 0 mm
00:19 15.2 °C 11 °C 1022.2 hPa Calm   8 km/h 76% 0 mm
00:24 15.2 °C 11 °C 1022.2 hPa NE 4.8 km/h 4.8 km/h 76% 0 mm
00:29 15.2 °C 10.9 °C 1022.2 hPa Calm   4.8 km/h 76% 0 mm
00:34 15.1 °C 10.7 °C 1022.2 hPa Calm     75% 0 mm
00:39 15.1 °C 10.9 °C 1022.2 hPa Calm     76% 0 mm
00:44 15.1 °C 10.8 °C 1022.2 hPa Calm     76% 0 mm
00:49 15.1 °C 10.8 °C 1022.2 hPa Calm     76% 0 mm
00:54 14.9 °C 10.7 °C 1022.2 hPa Calm     76% 0 mm
00:59 14.8 °C 10.6 °C 1022.6 hPa Calm     76% 0 mm
01:04 14.8 °C 10.6 °C 1022.6 hPa Calm     76% 0 mm
01:09 14.8 °C 10.7 °C 1022.2 hPa Calm     76% 0 mm
01:14 14.9 °C 10.7 °C 1022.2 hPa Calm     76% 0 mm
01:19 14.9 °C 10.7 °C 1022.2 hPa Calm     76% 0 mm
01:24 14.9 °C 10.7 °C 1022.2 hPa Calm     76% 0 mm
01:29 14.9 °C 10.7 °C 1022.2 hPa Calm     76% 0 mm
01:34 14.9 °C 10.7 °C 1022.2 hPa Calm     76% 0 mm
01:39 14.8 °C 10.7 °C 1022.2 hPa Calm     76% 0 mm
01:44 14.8 °C 10.6 °C 1022.2 hPa Calm     76% 0 mm
01:49 14.8 °C 10.6 °C 1021.9 hPa Calm   3.2 km/h 76% 0 mm
01:54 14.8 °C 10.6 °C 1021.9 hPa Calm   3.2 km/h 76% 0 mm
01:59 14.7 °C 10.5 °C 1021.9 hPa Calm     76% 0 mm
02:04 14.5 °C 10.5 °C 1021.9 hPa Calm     77% 0 mm
02:09 14.4 °C 10.4 °C 1021.9 hPa Calm     77% 0 mm
02:14 14.4 °C 10.4 °C 1021.9 hPa Calm     77% 0 mm
02:19 14.3 °C 10.3 °C 1021.9 hPa Calm     77% 0 mm
02:24 14.3 °C 10.3 °C 1021.9 hPa Calm     77% 0 mm
02:29 14.3 °C 10.3 °C 1021.9 hPa Calm     77% 0 mm
02:34 14.1 °C 10.1 °C 1021.9 hPa Calm     77% 0 mm
02:39 14 °C 10.2 °C 1021.9 hPa Calm     78% 0 mm
02:44 13.9 °C 10.2 °C 1021.9 hPa Calm     78% 0 mm
02:49 13.9 °C 10.1 °C 1021.9 hPa Calm     78% 0 mm
02:54 13.9 °C 10.1 °C 1021.9 hPa Calm     78% 0 mm
02:59 13.8 °C 10.1 °C 1021.9 hPa Calm     78% 0 mm
03:04 13.8 °C 10.2 °C 1021.9 hPa Calm     79% 0 mm
03:09 13.6 °C 10.1 °C 1021.9 hPa Calm     79% 0 mm
03:14 13.7 °C 10.1 °C 1021.9 hPa Calm     79% 0 mm
03:19 13.7 °C 10.2 °C 1021.9 hPa Calm     79% 0 mm
03:24 13.7 °C 10.2 °C 1021.6 hPa Calm     79% 0 mm
03:29 13.7 °C 10.2 °C 1021.6 hPa Calm     79% 0 mm
03:34 13.7 °C 10.2 °C 1021.6 hPa Calm     79% 0 mm
03:39 13.8 °C 10.2 °C 1021.6 hPa Calm   4.8 km/h 79% 0 mm
03:44 13.8 °C 10.2 °C 1021.6 hPa Calm     79% 0 mm
03:49 13.8 °C 10 °C 1021.6 hPa Calm     78% 0 mm
03:54 13.7 °C 10.2 °C 1021.6 hPa Calm     79% 0 mm
03:59 13.7 °C 9.9 °C 1021.6 hPa Calm     78% 0 mm
04:04 13.7 °C 10.1 °C 1021.6 hPa Calm     79% 0 mm
04:09 13.6 °C 10.1 °C 1021.6 hPa Calm     79% 0 mm
04:14 13.6 °C 10 °C 1021.6 hPa Calm     79% 0 mm
04:19 13.6 °C 10 °C 1021.6 hPa Calm     79% 0 mm
04:24 13.6 °C 10 °C 1021.6 hPa Calm     79% 0 mm
04:29 13.4 °C 9.9 °C 1021.6 hPa Calm     79% 0 mm
04:34 13.4 °C 9.9 °C 1021.6 hPa Calm   4.8 km/h 79% 0 mm
04:39 13.4 °C 9.9 °C 1021.6 hPa SE 1.6 km/h 3.2 km/h 79% 0 mm
04:44 13.4 °C 9.9 °C 1021.9 hPa Calm   3.2 km/h 79% 0 mm
04:49 13.4 °C 9.9 °C 1021.9 hPa Calm   1.6 km/h 79% 0 mm
04:54 13.4 °C 9.8 °C 1021.9 hPa Calm     79% 0 mm
04:59 13.4 °C 9.8 °C 1021.9 hPa Calm   3.2 km/h 79% 0 mm
05:04 13.4 °C 9.8 °C 1021.9 hPa Calm   3.2 km/h 79% 0 mm
05:09 13.3 °C 9.8 °C 1021.9 hPa Calm   3.2 km/h 79% 0 mm
05:14 13.3 °C 9.9 °C 1021.9 hPa Calm   1.6 km/h 80% 0 mm
05:19 13.3 °C 9.9 °C 1021.9 hPa Calm     80% 0 mm
05:24 13.2 °C 9.8 °C 1022.2 hPa Calm     80% 0 mm
05:29 13.2 °C 9.8 °C 1022.2 hPa Calm     80% 0 mm
05:34 13.2 °C 9.8 °C 1022.2 hPa Calm   4.8 km/h 80% 0 mm
05:39 13.2 °C 9.8 °C 1022.2 hPa Calm   4.8 km/h 80% 0 mm
05:44 13.2 °C 9.8 °C 1022.2 hPa Calm   1.6 km/h 80% 0 mm
05:49 13.2 °C 10 °C 1022.2 hPa Calm     81% 0 mm
05:54 13.2 °C 9.8 °C 1022.2 hPa Calm     80% 0 mm
05:59 13.2 °C 10 °C 1022.2 hPa Calm     81% 0 mm
06:04 13.1 °C 9.9 °C 1022.2 hPa Calm     81% 0 mm
06:09 13.1 °C 9.9 °C 1022.2 hPa Calm   4.8 km/h 81% 0 mm
06:14 13.2 °C 10 °C 1022.2 hPa Calm   1.6 km/h 81% 0 mm
06:19 13.2 °C 10 °C 1022.2 hPa Calm   3.2 km/h 81% 0 mm
06:24 13.2 °C 10 °C 1022.6 hPa Calm     81% 0 mm
06:29 13.2 °C 10 °C 1022.6 hPa Calm     81% 0 mm
06:34 13.2 °C 10 °C 1022.6 hPa Calm   4.8 km/h 81% 0 mm
06:39 13.3 °C 10.1 °C 1022.6 hPa Calm   4.8 km/h 81% 0 mm
06:44 13.3 °C 9.9 °C 1022.6 hPa Calm   3.2 km/h 80% 0 mm
06:49 13.3 °C 10.2 °C 1022.6 hPa Calm   4.8 km/h 81% 0 mm
06:54 13.4 °C 10 °C 1022.9 hPa Calm   4.8 km/h 80% 0 mm
06:59 13.4 °C 10.1 °C 1022.9 hPa Calm     80% 0 mm
07:04 13.4 °C 10.1 °C 1022.9 hPa Calm     80% 0 mm
07:09 13.5 °C 10.1 °C 1022.9 hPa Calm   3.2 km/h 80% 0 mm
07:14 13.6 °C 10.2 °C 1022.9 hPa Calm   3.2 km/h 80% 0 mm
07:19 13.8 °C 10.2 °C 1022.9 hPa Calm   8 km/h 79% 0 mm
07:24 13.9 °C 10.3 °C 1022.9 hPa ESE 4.8 km/h 6.4 km/h 79% 0 mm
07:29 14.1 °C 10.3 °C 1022.9 hPa Calm   4.8 km/h 78% 0 mm
07:34 14.3 °C 10.5 °C 1022.9 hPa ESE 3.2 km/h 4.8 km/h 78% 0 mm
07:39 14.4 °C 10.4 °C 1022.9 hPa ESE 1.6 km/h 6.4 km/h 77% 0 mm
07:44 14.5 °C 10.5 °C 1022.9 hPa ESE 1.6 km/h 8 km/h 77% 0 mm
07:49 14.7 °C 10.7 °C 1022.9 hPa ESE 1.6 km/h 9.7 km/h 77% 0 mm
07:54 14.8 °C 10.7 °C 1022.9 hPa ESE 3.2 km/h 9.7 km/h 76% 0 mm
07:59 14.9 °C 10.7 °C 1022.9 hPa ESE 3.2 km/h 9.7 km/h 76% 0 mm
08:04 15.1 °C 10.8 °C 1022.9 hPa ESE 3.2 km/h 9.7 km/h 76% 0 mm
08:09 15.2 °C 10.8 °C 1023.2 hPa SE 1.6 km/h 8 km/h 75% 0 mm
08:14 15.3 °C 10.9 °C 1023.2 hPa South 3.2 km/h 12.9 km/h 75% 0 mm
08:19 15.4 °C 11 °C 1023.2 hPa SE 1.6 km/h 9.7 km/h 75% 0 mm
08:24 15.5 °C 11.1 °C 1023.2 hPa SE 3.2 km/h 8 km/h 75% 0 mm
08:29 15.6 °C 11 °C 1023.2 hPa SE 4.8 km/h 6.4 km/h 74% 0 mm
08:34 15.7 °C 11.1 °C 1022.9 hPa SSE 1.6 km/h 9.7 km/h 74% 0 mm
08:39 15.9 °C 11.3 °C 1023.2 hPa Calm   9.7 km/h 74% 0 mm
08:44 16.1 °C 11.4 °C 1023.2 hPa ESE 3.2 km/h 9.7 km/h 74% 0 mm
08:49 16.2 °C 11.4 °C 1022.9 hPa ESE 3.2 km/h 9.7 km/h 73% 0 mm
08:54 16.3 °C 11.5 °C 1022.9 hPa SE 3.2 km/h 9.7 km/h 73% 0 mm
08:59 16.4 °C 11.4 °C 1023.2 hPa ESE 3.2 km/h 9.7 km/h 72% 0 mm
09:04 16.7 °C 11.7 °C 1023.2 hPa ESE 3.2 km/h 8 km/h 72% 0 mm
09:09 16.9 °C 11.8 °C 1023.2 hPa ESE 1.6 km/h 8 km/h 72% 0 mm
09:14 17.1 °C 11.8 °C 1023.2 hPa SE 3.2 km/h 6.4 km/h 71% 0 mm
09:19 17.2 °C 11.7 °C 1023.2 hPa SE 4.8 km/h 6.4 km/h 70% 0 mm
09:24 17.3 °C 11.8 °C 1023.2 hPa SSE 4.8 km/h 4.8 km/h 70% 0 mm
09:29 17.5 °C 11.9 °C 1023.2 hPa Calm   8 km/h 70% 0 mm
09:34 17.8 °C 12.4 °C 1023.2 hPa SSE 1.6 km/h 6.4 km/h 71% 0 mm
09:39 18 °C 12.4 °C 1023.2 hPa SE 4.8 km/h 6.4 km/h 70% 0 mm
09:44 18.2 °C 12.4 °C 1023.2 hPa SE 3.2 km/h 8 km/h 69% 0 mm
09:49 18.3 °C 12.3 °C 1023.2 hPa SE 3.2 km/h 8 km/h 68% 0 mm
09:54 18.4 °C 12.6 °C 1023.2 hPa SE 3.2 km/h 8 km/h 69% 0 mm
09:59 18.5 °C 12.7 °C 1023.2 hPa SE 3.2 km/h 8 km/h 69% 0 mm
10:04 18.7 °C 12.7 °C 1023.2 hPa SSW 4.8 km/h 4.8 km/h 68% 0 mm
10:09 19.1 °C 13.1 °C 1022.9 hPa Calm   4.8 km/h 68% 0 mm
10:14 19.4 °C 13.4 °C 1023.2 hPa Calm   4.8 km/h 68% 0 mm
10:19 19.8 °C 13.3 °C 1022.9 hPa SSE 1.6 km/h 8 km/h 66% 0 mm
10:24 20.2 °C 13.2 °C 1022.9 hPa SSW 1.6 km/h 11.3 km/h 64% 0 mm
10:29 20.6 °C 13.3 °C 1022.9 hPa SSW 3.2 km/h 9.7 km/h 63% 0 mm
10:34 20.8 °C 13.2 °C 1022.9 hPa ESE 3.2 km/h 12.9 km/h 62% 0 mm
10:39 20.9 °C 12.9 °C 1022.9 hPa SSE 8 km/h 14.5 km/h 60% 0 mm
10:44 21.3 °C 13.2 °C 1022.6 hPa SSE 6.4 km/h 14.5 km/h 60% 0 mm
10:49 21.4 °C 13.3 °C 1022.9 hPa South 6.4 km/h 11.3 km/h 60% 0 mm
10:54 21.6 °C 12.4 °C 1022.6 hPa South 6.4 km/h 17.7 km/h 56% 0 mm
10:59 21.6 °C 12.7 °C 1022.9 hPa South 6.4 km/h 17.7 km/h 57% 0 mm
11:04 21.6 °C 12.7 °C 1022.6 hPa South 8 km/h 16.1 km/h 57% 0 mm
11:09 21.7 °C 12.8 °C 1022.6 hPa SSE 8 km/h 17.7 km/h 57% 0 mm
11:14 21.7 °C 12.6 °C 1022.6 hPa SSW 4.8 km/h 14.5 km/h 56% 0 mm
11:19 21.8 °C 12.4 °C 1022.6 hPa SSE 8 km/h 17.7 km/h 55% 0 mm
11:24 22 °C 13.1 °C 1022.6 hPa SSW 6.4 km/h 12.9 km/h 57% 0 mm
11:29 21.9 °C 13.6 °C 1022.6 hPa SE 3.2 km/h 12.9 km/h 59% 0 mm
11:34 22.1 °C 13.4 °C 1022.6 hPa South 6.4 km/h 9.7 km/h 58% 0 mm
11:39 22.2 °C 13.8 °C 1022.6 hPa SE 4.8 km/h 8 km/h 59% 0 mm
11:44 22 °C 13.6 °C 1022.6 hPa East 4.8 km/h 9.7 km/h 59% 0 mm
11:49 21.9 °C 13.3 °C 1022.6 hPa SE 4.8 km/h 11.3 km/h 58% 0 mm
11:54 21.9 °C 13.8 °C 1022.6 hPa ESE 4.8 km/h 12.9 km/h 60% 0 mm
11:59 21.9 °C 13.3 °C 1022.6 hPa ESE 4.8 km/h 12.9 km/h 58% 0 mm
12:04 22 °C 13.6 °C 1022.6 hPa SE 1.6 km/h 16.1 km/h 59% 0 mm
12:09 22.3 °C 13.9 °C 1022.6 hPa SSE 6.4 km/h 9.7 km/h 59% 0 mm
12:14 21.9 °C 12.7 °C 1022.6 hPa ESE 3.2 km/h 16.1 km/h 56% 0 mm
12:19 21.9 °C 13.3 °C 1022.6 hPa ESE 4.8 km/h 12.9 km/h 58% 0 mm
12:24 22.1 °C 13.2 °C 1022.6 hPa SE 4.8 km/h 12.9 km/h 57% 0 mm
12:29 22.3 °C 13.1 °C 1022.6 hPa SE 4.8 km/h 12.9 km/h 56% 0 mm
12:34 22.2 °C 13 °C 1022.6 hPa SE 4.8 km/h 11.3 km/h 56% 0 mm
12:39 22.3 °C 13.1 °C 1022.6 hPa SE 6.4 km/h 14.5 km/h 56% 0 mm
12:44 22.4 °C 13.2 °C 1022.6 hPa ESE 6.4 km/h 11.3 km/h 56% 0 mm
12:49 22.4 °C 12.7 °C 1022.6 hPa SW 9.7 km/h 14.5 km/h 54% 0 mm
12:54 22.2 °C 11.9 °C 1022.6 hPa SE 6.4 km/h 16.1 km/h 52% 0 mm
12:59 22.2 °C 11.8 °C 1022.6 hPa SSE 8 km/h 16.1 km/h 52% 0 mm
13:04 22.1 °C 12.4 °C 1022.6 hPa ESE 8 km/h 11.3 km/h 54% 0 mm
13:09 22.2 °C 12.1 °C 1022.2 hPa ESE 3.2 km/h 12.9 km/h 53% 0 mm
13:14 22.3 °C 12.3 °C 1022.2 hPa SSE 3.2 km/h 12.9 km/h 53% 0 mm
13:19 22.4 °C 12.6 °C 1022.2 hPa ESE 3.2 km/h 11.3 km/h 54% 0 mm
13:24 22.6 °C 12.3 °C 1022.2 hPa SE 6.4 km/h 14.5 km/h 52% 0 mm
13:29 22.9 °C 12.5 °C 1022.2 hPa SE 6.4 km/h 14.5 km/h 52% 0 mm
13:34 22.9 °C 11.9 °C 1022.2 hPa SE 6.4 km/h 14.5 km/h 50% 0 mm
13:39 23.2 °C 12.8 °C 1021.9 hPa SE 9.7 km/h 12.9 km/h 52% 0 mm
13:44 23.6 °C 12.8 °C 1022.2 hPa SW 4.8 km/h 12.9 km/h 51% 0 mm
13:49 23.3 °C 12.6 °C 1021.9 hPa SE 9.7 km/h 12.9 km/h 51% 0 mm
13:54 23.2 °C 12.8 °C 1021.9 hPa SSE 6.4 km/h 14.5 km/h 52% 0 mm
13:59 23.4 °C 12.9 °C 1021.9 hPa SSE 6.4 km/h 14.5 km/h 52% 0 mm
14:04 23.3 °C 12 °C 1021.9 hPa SSE 4.8 km/h 12.9 km/h 49% 0 mm
14:09 23.2 °C 12.2 °C 1021.9 hPa South 3.2 km/h 14.5 km/h 50% 0 mm
14:14 23.6 °C 13.1 °C 1021.9 hPa Calm   11.3 km/h 52% 0 mm
14:19 23.4 °C 12.1 °C 1021.9 hPa SSE 4.8 km/h 12.9 km/h 49% 0 mm
14:24 23.6 °C 12.5 °C 1021.9 hPa SSE 4.8 km/h 8 km/h 50% 0 mm
14:29 23.9 °C 12.2 °C 1021.9 hPa SE 6.4 km/h 17.7 km/h 48% 0 mm
14:34 23.8 °C 11.8 °C 1021.6 hPa SE 8 km/h 17.7 km/h 47% 0 mm
14:39 23.6 °C 12.6 °C 1021.6 hPa SE 8 km/h 16.1 km/h 50% 0 mm
14:44 23.6 °C 11.9 °C 1021.6 hPa SE 8 km/h 16.1 km/h 48% 0 mm
14:49 23.8 °C 12.4 °C 1021.6 hPa SE 8 km/h 16.1 km/h 49% 0 mm
14:54 24.2 °C 11.8 °C 1021.6 hPa SSE 4.8 km/h 12.9 km/h 46% 0 mm
14:59 24 °C 11.7 °C 1021.6 hPa SE 6.4 km/h 19.3 km/h 46% 0 mm
15:04 24.4 °C 12 °C 1021.6 hPa SE 8 km/h 19.3 km/h 46% 0 mm
15:09 24.3 °C 11.2 °C 1021.2 hPa SE 11.3 km/h 20.9 km/h 44% 0 mm
15:14 24 °C 11.7 °C 1021.2 hPa ENE 4.8 km/h 14.5 km/h 46% 0 mm
15:19 24.1 °C 11.8 °C 1021.2 hPa East 8 km/h 16.1 km/h 46% 0 mm
15:24 24.1 °C 11.4 °C 1021.2 hPa SE 4.8 km/h 16.1 km/h 45% 0 mm
15:29 23.7 °C 11.7 °C 1021.2 hPa SE 6.4 km/h 14.5 km/h 47% 0 mm
15:34 24.1 °C 12.4 °C 1021.2 hPa ESE 6.4 km/h 14.5 km/h 48% 0 mm
15:39 24.6 °C 11.5 °C 1020.9 hPa ESE 6.4 km/h 14.5 km/h 44% 0 mm
15:44 24.5 °C 12.1 °C 1020.9 hPa ESE 6.4 km/h 14.5 km/h 46% 0 mm
15:49 24.8 °C 12.1 °C 1020.9 hPa ESE 6.4 km/h 12.9 km/h 45% 0 mm
15:54 24.7 °C 12.6 °C 1020.9 hPa ENE 6.4 km/h 16.1 km/h 47% 0 mm
15:59 24.2 °C 11.9 °C 1020.9 hPa ESE 11.3 km/h 16.1 km/h 46% 0 mm
16:04 24.1 °C 12.4 °C 1020.9 hPa ESE 8 km/h 16.1 km/h 48% 0 mm
16:09 23.8 °C 11.8 °C 1020.9 hPa SE 6.4 km/h 16.1 km/h 47% 0 mm
16:14 23.7 °C 11.3 °C 1020.9 hPa SSE 6.4 km/h 17.7 km/h 46% 0 mm
16:19 23.4 °C 11.8 °C 1020.9 hPa SE 4.8 km/h 14.5 km/h 48% 0 mm
16:24 23.7 °C 11.3 °C 1020.9 hPa ESE 4.8 km/h 16.1 km/h 46% 0 mm
16:29 23.8 °C 11.4 °C 1020.9 hPa SE 4.8 km/h 16.1 km/h 46% 0 mm
16:34 24.3 °C 11.9 °C 1020.9 hPa SE 6.4 km/h 17.7 km/h 46% 0 mm
16:39 24.3 °C 11.6 °C 1020.9 hPa ESE 6.4 km/h 19.3 km/h 45% 0 mm
16:44 24.5 °C 12.1 °C 1020.9 hPa ESE 6.4 km/h 19.3 km/h 46% 0 mm
16:49 24.5 °C 11.8 °C 1020.5 hPa ESE 6.4 km/h 14.5 km/h 45% 0 mm
16:54 24.6 °C 11.5 °C 1020.9 hPa ESE 6.4 km/h 16.1 km/h 44% 0 mm
16:59 24.4 °C 11.4 °C 1020.9 hPa SE 6.4 km/h 16.1 km/h 44% 0 mm
17:04 24.3 °C 11.3 °C 1020.9 hPa South 8 km/h 14.5 km/h 44% 0 mm
17:09 24.3 °C 11.6 °C 1020.9 hPa SSE 8 km/h 16.1 km/h 45% 0 mm
17:14 24.3 °C 11.6 °C 1020.9 hPa SE 1.6 km/h 16.1 km/h 45% 0 mm
17:19 24.6 °C 11.5 °C 1020.9 hPa SE 12.9 km/h 17.7 km/h 44% 0 mm
17:24 24.4 °C 11.1 °C 1020.9 hPa SSE 9.7 km/h 16.1 km/h 43% 0 mm
17:29 24.2 °C 11.2 °C 1020.9 hPa SSE 6.4 km/h 19.3 km/h 44% 0 mm
17:34 24.2 °C 10.8 °C 1020.9 hPa SSE 6.4 km/h 12.9 km/h 43% 0 mm
17:39 24.1 °C 11.1 °C 1020.9 hPa SE 4.8 km/h 12.9 km/h 44% 0 mm
17:44 23.9 °C 11.6 °C 1020.5 hPa SE 4.8 km/h 11.3 km/h 46% 0 mm
17:49 23.8 °C 11.4 °C 1020.9 hPa SE 4.8 km/h 14.5 km/h 46% 0 mm
17:54 23.9 °C 11.6 °C 1020.5 hPa SE 4.8 km/h 14.5 km/h 46% 0 mm
17:59 23.8 °C 11.8 °C 1020.5 hPa SE 4.8 km/h 11.3 km/h 47% 0 mm
18:04 23.8 °C 12.1 °C 1020.5 hPa ESE 4.8 km/h 12.9 km/h 48% 0 mm
18:09 23.6 °C 11.6 °C 1020.5 hPa SE 4.8 km/h 12.9 km/h 47% 0 mm
18:14 23.5 °C 12.2 °C 1020.5 hPa SE 3.2 km/h 9.7 km/h 49% 0 mm
18:19 23.4 °C 11.8 °C 1020.9 hPa ESE 3.2 km/h 9.7 km/h 48% 0 mm
18:24 23.3 °C 11.9 °C 1020.5 hPa East 1.6 km/h 9.7 km/h 49% 0 mm
18:29 23.1 °C 11.4 °C 1020.9 hPa SE 3.2 km/h 12.9 km/h 48% 0 mm
18:34 22.9 °C 11.7 °C 1020.5 hPa SE 3.2 km/h 14.5 km/h 49% 0 mm
18:39 22.9 °C 11.6 °C 1020.9 hPa SSE 4.8 km/h 14.5 km/h 49% 0 mm
18:44 22.8 °C 11.8 °C 1020.9 hPa SE 6.4 km/h 14.5 km/h 50% 0 mm
18:49 22.7 °C 11.7 °C 1020.9 hPa SE 4.8 km/h 12.9 km/h 50% 0 mm
18:54 22.6 °C 11.7 °C 1020.9 hPa SE 4.8 km/h 11.3 km/h 50% 0 mm
18:59 22.5 °C 11.6 °C 1020.9 hPa SSE 3.2 km/h 9.7 km/h 50% 0 mm
19:04 22.4 °C 11.8 °C 1020.9 hPa SSE 1.6 km/h 6.4 km/h 51% 0 mm
19:09 22.3 °C 11.7 °C 1020.9 hPa East 1.6 km/h 9.7 km/h 51% 0 mm
19:14 22.2 °C 11.6 °C 1020.9 hPa SE 3.2 km/h 9.7 km/h 51% 0 mm
19:19 22.1 °C 11.4 °C 1020.9 hPa ESE 3.2 km/h 8 km/h 51% 0 mm
19:24 21.9 °C 11.6 °C 1020.9 hPa SE 3.2 km/h 11.3 km/h 52% 0 mm
19:29 21.8 °C 11.8 °C 1020.9 hPa Calm   11.3 km/h 53% 0 mm
19:34 21.7 °C 11.7 °C 1020.9 hPa ESE 1.6 km/h 6.4 km/h 53% 0 mm
19:39 21.5 °C 11.8 °C 1020.9 hPa East 1.6 km/h 8 km/h 54% 0 mm
19:44 21.4 °C 12 °C 1020.9 hPa East 1.6 km/h 9.7 km/h 55% 0 mm
19:49 21.3 °C 12.2 °C 1020.9 hPa East 3.2 km/h 9.7 km/h 56% 0 mm
19:54 21.1 °C 12.3 °C 1020.9 hPa ESE 3.2 km/h 9.7 km/h 57% 0 mm
19:59 20.9 °C 12.4 °C 1020.9 hPa ESE 4.8 km/h 9.7 km/h 58% 0 mm
20:04 20.8 °C 12.3 °C 1020.9 hPa ESE 1.6 km/h 6.4 km/h 58% 0 mm
20:09 20.7 °C 12.4 °C 1020.9 hPa ESE 4.8 km/h 6.4 km/h 59% 0 mm
20:14 20.6 °C 12.3 °C 1020.9 hPa ESE 1.6 km/h 6.4 km/h 59% 0 mm
20:19 20.6 °C 12.5 °C 1020.9 hPa ESE 3.2 km/h 9.7 km/h 60% 0 mm
20:24 20.4 °C 12.4 °C 1020.9 hPa SE 4.8 km/h 9.7 km/h 60% 0 mm
20:29 20.3 °C 12.6 °C 1020.9 hPa SE 3.2 km/h 8 km/h 61% 0 mm
20:34 20.2 °C 12.4 °C 1021.2 hPa SE 4.8 km/h 11.3 km/h 61% 0 mm
20:39 20.1 °C 12.3 °C 1021.2 hPa SE 3.2 km/h 8 km/h 61% 0 mm
20:44 20 °C 12.5 °C 1021.2 hPa SSE 1.6 km/h 8 km/h 62% 0 mm
20:49 19.9 °C 12.4 °C 1021.2 hPa SE 3.2 km/h 9.7 km/h 62% 0 mm
20:54 19.8 °C 12.6 °C 1021.2 hPa ESE 3.2 km/h 9.7 km/h 63% 0 mm
20:59 19.7 °C 12.5 °C 1021.2 hPa ESE 1.6 km/h 8 km/h 63% 0 mm
21:04 19.6 °C 12.4 °C 1021.2 hPa Calm   6.4 km/h 63% 0 mm
21:09 19.5 °C 12.5 °C 1021.2 hPa SE 1.6 km/h 4.8 km/h 64% 0 mm
21:14 19.4 °C 12.4 °C 1021.2 hPa Calm   6.4 km/h 64% 0 mm
21:19 19.3 °C 12.3 °C 1021.2 hPa SE 1.6 km/h 6.4 km/h 64% 0 mm
21:24 19.3 °C 12.3 °C 1021.2 hPa SE 1.6 km/h 6.4 km/h 64% 0 mm
21:29 19.2 °C 12.2 °C 1021.2 hPa SE 1.6 km/h 8 km/h 64% 0 mm
21:34 19.2 °C 12.4 °C 1021.2 hPa Calm   3.2 km/h 65% 0 mm
21:39 19.1 °C 12.1 °C 1021.2 hPa ESE 3.2 km/h 6.4 km/h 64% 0 mm
21:44 19 °C 12.3 °C 1021.2 hPa ESE 1.6 km/h 4.8 km/h 65% 0 mm
21:49 18.9 °C 12.2 °C 1021.2 hPa ESE 1.6 km/h 6.4 km/h 65% 0 mm
21:54 18.9 °C 12.2 °C 1021.2 hPa ESE 1.6 km/h 6.4 km/h 65% 0 mm
21:59 18.8 °C 12.1 °C 1021.2 hPa ESE 1.6 km/h 6.4 km/h 65% 0 mm
22:04 18.8 °C 12.1 °C 1021.2 hPa ESE 1.6 km/h 6.4 km/h 65% 0 mm
22:09 18.8 °C 12.1 °C 1021.2 hPa East 1.6 km/h 8 km/h 65% 0 mm
22:14 18.7 °C 11.9 °C 1021.2 hPa Calm   4.8 km/h 65% 0 mm
22:19 18.6 °C 11.8 °C 1021.2 hPa Calm   6.4 km/h 65% 0 mm
22:24 18.5 °C 12 °C 1021.2 hPa Calm   6.4 km/h 66% 0 mm
22:29 18.4 °C 12 °C 1021.2 hPa ESE 1.6 km/h 4.8 km/h 66% 0 mm
22:34 18.3 °C 12.1 °C 1021.2 hPa ESE 1.6 km/h 4.8 km/h 67% 0 mm
22:39 18.2 °C 12 °C 1021.2 hPa Calm   4.8 km/h 67% 0 mm
22:44 18.2 °C 11.9 °C 1021.2 hPa Calm   4.8 km/h 67% 0 mm
22:54 18 °C 12 °C 1021.6 hPa Calm   4.8 km/h 68% 0 mm
22:59 17.9 °C 11.9 °C 1021.2 hPa ESE 1.6 km/h 4.8 km/h 68% 0 mm
23:04 17.9 °C 11.9 °C 1021.2 hPa Calm   4.8 km/h 68% 0 mm
23:09 17.8 °C 11.8 °C 1021.2 hPa Calm   4.8 km/h 68% 0 mm
23:24 17.6 °C 11.8 °C 1021.2 hPa Calm   4.8 km/h 69% 0 mm
23:29 17.5 °C 11.9 °C 1021.2 hPa ESE 1.6 km/h 4.8 km/h 70% 0 mm
23:34 17.4 °C 11.9 °C 1021.2 hPa Calm   4.8 km/h 70% 0 mm
23:44 17.3 °C 11.8 °C 1021.2 hPa ESE 3.2 km/h 3.2 km/h 70% 0 mm
23:49 17.3 °C 11.8 °C 1021.6 hPa Calm   3.2 km/h 70% 0 mm
23:54 17.3 °C 11.9 °C 1021.2 hPa Calm     71% 0 mm
23:59 17.3 °C 11.9 °C 1021.2 hPa Calm   3.2 km/h 71% 0 mm
Buffalo, New York, USA
Compliments of Weather Underground - 2.5 mb